Wind_Speed
106 103 99 96 92 88 84 81 79 77 75 73 72 70 67 65 61 57 53 49 47 45 44 42 42 42 43 42 39 37 35 35 36 39 40 40 42 46 49 51 53 55 58 61 65 69 73 77 82 86 91 96 101 105 109 113 117 121 127 132 139 145 150 156 160 163 164 164 164 164 164 164 164 165 166 167 167 166 166 165 165 167 170 172 172
108 104 100 96 92 88 83 80 78 77 75 73 71 69 67 65 62 58 53 49 46 45 44 43 42 42 42 42 41 38 36 35 35 37 39 40 40 43 47 49 51 53 55 58 61 65 69 73 77 81 85 90 95 100 104 108 112 116 121 126 132 138 144 149 155 160 163 164 165 166 166 165 166 166 167 168 168 167 167 166 166 166 168 170 171
109 105 100 96 92 87 83 80 78 76 74 73 71 69 67 64 62 58 54 50 47 45 44 43 42 42 42 43 42 40 37 35 35 36 37 39 41 41 44 47 49 51 53 56 58 61 64 68 72 76 80 85 89 94 99 103 107 112 117 121 126 132 138 143 148 154 159 163 165 167 167 167 167 167 168 169 169 169 169 168 168 167 168 169 170
111 106 100 96 92 87 83 80 78 75 74 73 71 68 66 64 62 58 54 50 47 45 44 42 42 41 42 42 43 42 39 36 35 35 36 38 40 41 42 45 48 49 51 53 56 59 61 64 68 72 76 80 84 88 93 97 102 107 112 116 121 126 132 137 143 148 154 159 164 167 168 168 168 169 169 170 171 171 171 170 170 169 169 169 170
112 107 101 95 91 87 83 80 77 75 73 72 70 68 65 63 61 58 54 50 47 45 44 42 42 41 41 42 43 43 41 38 36 35 36 36 38 41 42 43 46 48 49 50 53 56 59 61 64 68 73 76 80 83 87 91 96 101 106 111 116 121 126 131 137 142 148 153 159 164 167 169 169 170 171 171 172 173 173 173 172 171 171 170 170
112 107 101 95 90 86 83 80 77 75 73 71 70 67 65 62 60 58 55 51 48 46 44 43 41 41 41 41 42 43 42 40 37 35 36 36 36 39 41 42 44 47 47 48 50 53 56 59 61 64 68 72 76 79 82 86 91 96 101 106 111 116 121 126 131 136 142 148 153 159 164 168 169 170 171 172 173 174 174 174 174 173 173 172 172
112 107 101 95 90 86 83 80 77 74 73 71 69 66 64 62 60 58 55 52 49 47 45 43 42 40 40 40 41 43 43 41 39 37 36 36 36 37 39 41 42 45 46 47 48 50 53 56 59 61 64 68 72 76 79 82 86 91 96 101 105 110 115 120 125 130 136 141 147 153 159 164 167 169 171 172 173 174 175 175 176 175 175 174 174
110 106 101 95 89 85 82 80 77 74 72 70 68 65 63 61 59 57 55 52 50 48 46 43 42 41 40 40 40 42 43 42 40 38 37 36 36 36 38 40 41 43 45 46 47 48 50 53 56 59 61 64 68 72 75 79 82 86 90 95 100 104 110 115 120 124 129 134 140 146 152 157 161 165 168 170 172 174 175 176 177 177 176 176 175
107 104 100 94 89 85 82 80 76 73 71 69 67 65 62 60 58 56 54 52 50 49 47 44 42 41 39 39 40 41 42 42 41 40 38 36 36 36 37 38 39 41 43 45 45 46 48 50 53 56 59 61 64 68 72 75 79 82 85 89 94 99 104 109 114 119 124 129 134 139 145 151 155 159 163 167 170 173 175 176 177 178 178 177 176
104 101 97 93 88 84 82 79 75 72 70 68 66 63 61 59 57 55 54 52 51 49 47 45 43 41 40 38 39 40 42 42 42 41 39 37 36 36 37 38 38 39 41 44 45 45 46 48 50 53 56 59 61 64 68 72 76 79 81 84 89 93 98 103 108 114 119 124 129 134 139 145 150 154 158 162 166 170 173 175 177 178 178 178 177
100 98 95 91 86 83 81 78 74 71 69 66 64 62 60 58 56 54 53 52 51 49 48 46 44 42 40 38 38 39 41 42 41 41 41 39 36 35 36 38 39 37 37 41 44 44 44 46 48 50 53 56 59 61 64 68 72 75 78 81 84 88 93 98 103 108 113 119 124 129 134 139 144 149 154 158 162 166 169 172 175 176 177 178 178
97 95 92 89 85 83 80 77 73 70 67 65 63 61 59 57 55 53 52 51 50 49 48 46 44 42 40 38 38 39 40 41 41 41 42 40 38 36 35 37 39 38 36 37 42 44 44 44 46 48 50 53 56 59 61 64 68 71 75 78 81 85 89 93 98 102 107 113 118 124 129 133 138 143 147 152 156 160 164 167 170 173 175 177 177
95 92 90 87 84 81 79 75 71 68 66 64 62 60 58 56 54 52 51 51 50 49 48 46 44 42 40 38 37 38 40 40 40 41 42 41 39 37 35 36 38 38 37 36 38 42 44 44 44 46 48 51 53 56 59 62 64 68 71 74 78 81 85 89 93 97 101 106 112 118 123 128 133 137 140 144 149 153 157 161 165 168 171 174 175
93 90 87 85 82 80 78 74 70 67 65 62 60 59 57 55 53 52 51 50 49 48 48 46 44 42 40 38 37 37 39 40 40 41 42 42 40 38 36 36 37 37 37 36 37 39 42 43 44 44 46 48 51 53 56 59 62 64 67 70 74 78 82 86 89 93 96 100 106 112 117 123 128 132 135 137 141 145 149 154 158 162 165 168 170
91 88 86 83 80 79 76 73 69 66 63 61 59 58 56 54 52 51 50 49 49 48 47 46 44 42 40 38 37 37 38 39 39 40 41 42 41 39 37 36 36 36 37 37 37 37 39 41 43 43 44 45 48 51 53 56 59 61 64 67 70 74 78 82 86 89 92 96 100 105 111 117 122 127 130 133 135 138 142 146 150 154 158 161 164
90 86 84 82 79 77 75 71 68 65 62 60 58 57 55 53 52 50 49 48 48 47 47 45 44 42 40 38 37 37 38 39 38 39 40 41 41 40 38 37 37 36 36 36 36 37 38 39 41 42 42 43 45 48 51 53 56 58 61 63 66 70 73 78 82 85 89 92 96 100 105 109 115 120 125 128 131 134 137 139 143 146 150 153 156
88 84 82 81 78 76 73 70 66 64 61 59 57 56 54 53 51 50 48 47 47 47 46 45 44 42 40 38 37 37 37 38 38 38 40 41 41 40 39 38 37 36 36 36 36 36 37 38 39 40 41 42 43 45 48 51 53 56 58 61 63 66 69 72 76 81 85 88 92 96 100 103 108 113 119 123 127 129 132 134 137 140 143 145 148
86 82 80 79 77 74 71 68 65 62 60 58 56 55 53 52 51 49 48 47 46 46 45 44 44 43 41 39 37 37 37 38 38 38 39 40 40 40 39 39 38 37 36 36 36 36 36 37 38 39 39 40 41 43 45 48 50 53 56 58 61 63 65 68 72 76 80 85 89 92 96 99 102 107 112 117 121 125 127 130 132 135 137 139 142
84 80 78 78 76 72 70 67 64 61 58 56 55 54 52 50 49 48 47 46 46 46 45 44 43 43 41 40 38 37 37 38 37 37 38 39 40 40 39 39 39 38 36 35 35 36 35 36 36 37 38 38 39 41 43 45 47 50 53 56 58 59 61 64 68 72 76 80 84 88 91 93 97 101 105 110 114 118 122 125 128 130 131 133 136
81 78 77 76 74 71 68 66 63 60 57 55 54 53 51 49 48 47 46 46 45 45 44 43 43 43 42 40 39 38 37 37 37 37 37 39 39 39 39 39 39 38 37 35 35 35 35 35 35 36 37 37 37 38 40 43 45 47 50 52 54 57 59 62 65 68 71 75 79 83 86 89 92 96 100 104 107 111 115 119 123 125 126 127 130
79 77 75 75 73 69 66 64 61 58 56 54 53 52 50 48 47 46 46 45 45 45 44 43 43 44 43 41 40 38 37 37 37 37 37 38 39 39 38 38 38 38 37 36 35 34 34 35 35 36 36 36 36 37 38 41 43 45 47 49 51 54 57 60 62 64 67 70 74 77 80 83 87 91 94 98 102 105 109 112 116 119 121 123 124
78 75 74 73 71 67 65 63 60 57 55 53 52 50 49 47 46 45 45 45 45 44 44 43 43 43 43 42 40 38 38 37 36 36 36 37 38 38 38 37 37 37 37 36 35 34 33 34 34 35 35 34 35 36 36 38 41 43 45 47 49 51 55 57 59 61 63 66 69 72 75 78 81 85 89 92 96 99 102 105 108 111 114 117 120
76 73 72 72 69 66 63 61 58 56 53 52 51 49 48 46 45 44 44 44 44 44 43 42 42 43 43 43 41 39 38 37 36 36 36 37 37 38 37 36 36 37 37 36 35 34 33 33 33 34 35 34 34 35 35 37 39 41 43 45 47 49 51 54 56 58 60 62 65 67 70 73 76 79 83 86 89 92 96 99 102 105 107 110 114
74 72 70 69 67 64 61 59 57 54 52 50 49 48 47 45 44 43 43 43 43 43 43 42 42 42 43 43 41 39 38 37 37 36 36 36 36 37 37 36 36 36 36 36 35 34 33 32 32 33 34 34 34 34 35 36 37 38 41 43 45 47 48 50 52 55 57 59 61 63 65 68 71 74 77 80 83 86 90 94 97 100 102 105 107
72 70 69 67 64 61 59 57 55 53 51 49 48 47 46 45 43 43 43 43 43 42 42 42 42 42 42 42 41 40 39 38 37 37 36 36 36 36 36 35 35 35 35 35 35 34 33 33 32 32 32 33 33 34 35 35 35 36 39 41 43 45 46 48 49 52 54 56 58 60 62 63 66 68 72 75 78 81 85 88 92 94 97 99 102
70 68 66 65 62 59 57 55 53 52 50 48 47 47 46 44 43 42 42 42 42 42 42 42 42 42 42 42 41 40 39 38 37 37 36 36 36 36 35 34 34 34 34 34 34 34 33 33 32 32 31 32 32 33 34 35 35 35 37 39 41 43 44 46 47 48 51 53 55 57 59 60 62 64 67 70 74 77 79 82 85 88 91 93 96
67 66 64 62 60 58 55 53 52 51 49 47 47 47 46 44 43 42 42 41 41 41 42 42 42 41 41 41 41 40 39 39 37 37 36 36 36 36 35 34 34 33 33 33 33 33 33 33 32 32 31 31 31 32 33 34 34 35 35 37 39 41 42 44 45 46 48 50 52 54 56 57 59 61 63 66 69 72 74 76 79 82 85 87 90
65 63 62 60 58 56 54 52 51 50 48 47 46 46 46 44 43 42 41 41 41 41 42 42 42 41 41 41 40 40 39 39 38 37 36 36 36 35 35 34 34 33 32 32 31 32 33 32 32 32 31 31 31 31 32 33 34 34 35 35 37 39 41 42 43 44 46 47 49 51 53 55 57 58 60 62 65 67 69 72 74 77 79 81 85
63 61 60 58 57 55 53 51 50 48 47 46 46 46 46 45 44 42 41 40 40 41 42 42 42 41 41 40 40 39 39 39 38 37 37 36 36 35 34 34 33 33 32 31 30 30 31 32 32 32 31 31 30 30 31 32 33 34 34 35 35 37 39 40 42 43 44 45 47 49 50 52 54 56 57 59 61 63 65 67 70 72 74 77 80
60 59 58 56 54 53 52 50 49 48 46 46 45 45 45 45 44 42 41 40 40 41 42 42 42 41 40 40 39 39 38 39 38 38 37 37 36 36 34 33 33 32 32 31 30 29 30 31 31 31 31 31 30 30 30 31 32 33 34 35 35 35 36 38 40 42 43 44 45 47 48 50 52 53 55 57 58 59 61 63 66 68 70 72 76
59 57 56 54 53 51 50 50 48 47 46 45 45 45 45 45 44 42 41 40 40 41 41 42 41 40 39 39 38 38 38 38 38 37 37 37 36 36 35 34 33 33 32 31 30 29 29 29 30 30 31 31 30 30 30 30 30 32 33 34 35 35 35 36 38 40 42 43 44 45 47 48 50 51 53 54 56 57 59 61 63 65 67 69 71
57 56 54 52 51 50 49 49 48 47 46 45 45 45 45 44 43 43 41 40 40 40 41 41 41 40 39 38 38 38 37 37 37 37 36 36 36 36 35 34 34 33 32 31 30 29 29 28 29 29 30 30 30 30 30 30 30 30 32 33 34 35 35 35 36 38 40 42 43 44 45 46 48 49 50 52 53 55 57 59 61 62 64 66 68
55 54 52 51 50 49 49 48 47 46 45 44 44 45 45 44 43 42 41 40 40 40 40 40 40 40 39 38 37 37 37 37 37 36 36 36 35 35 35 35 34 34 33 32 31 30 29 29 28 28 28 29 29 30 30 30 30 30 31 32 33 34 35 35 35 36 38 40 41 43 44 45 46 47 49 50 51 53 54 56 58 60 62 64 65
54 52 50 49 49 49 48 47 46 45 44 44 44 44 44 43 42 42 41 40 40 40 39 39 39 39 39 38 37 37 37 36 36 36 35 35 35 35 35 35 35 35 34 33 32 31 30 29 29 28 28 28 28 29 29 30 30 30 30 31 32 33 35 35 35 36 36 38 39 41 42 43 44 45 47 48 49 51 52 53 55 57 59 61 63
52 51 49 48 48 48 47 46 45 44 43 43 43 44 44 43 42 41 40 40 40 39 39 39 39 38 38 37 36 36 36 36 36 35 35 34 34 34 35 35 35 35 34 34 33 32 31 31 30 29 28 27 27 28 28 29 29 30 30 31 31 32 33 35 36 36 36 36 38 39 41 42 43 44 45 46 47 49 50 51 53 55 56 58 60
51 50 48 48 48 48 47 46 44 44 43 43 43 43 43 42 41 41 40 40 39 39 38 38 38 38 37 37 36 35 35 35 35 35 34 34 34 34 34 35 35 35 35 34 34 33 33 32 31 30 29 28 27 27 27 28 28 29 30 31 31 32 32 33 35 36 36 36 37 37 39 41 42 43 44 44 45 47 48 49 51 52 54 55 57
50 49 48 48 47 47 46 45 44 43 42 42 42 42 42 41 41 40 40 39 39 38 37 37 37 37 36 36 35 35 34 34 34 34 34 34 34 34 34 34 34 34 35 35 34 34 34 33 33 32 31 30 29 28 27 27 27 28 29 30 31 32 32 33 34 35 36 37 37 37 38 39 40 42 43 44 44 45 46 48 49 50 51 52 54
50 48 48 47 47 46 45 44 43 42 42 41 41 41 40 40 40 39 39 39 39 38 37 36 36 35 35 35 35 34 34 34 33 33 33 33 33 34 34 34 34 34 34 35 35 35 34 34 34 33 32 31 30 29 28 27 27 27 28 29 30 31 32 32 33 34 35 36 37 38 38 38 39 40 41 42 43 44 45 46 47 48 49 50 52
48 47 47 46 46 45 44 43 42 41 41 40 40 40 39 39 38 38 38 38 39 38 37 36 35 35 34 34 34 34 34 34 33 33 33 33 33 34 34 35 35 35 35 35 35 35 35 35 35 34 34 33 32 31 30 29 28 28 28 29 29 30 31 32 33 34 34 36 37 38 39 39 39 39 40 41 42 43 44 45 46 47 48 49 50
47 46 46 45 45 44 44 43 42 41 40 40 39 39 38 38 37 37 37 37 38 38 38 37 36 35 34 34 34 34 34 34 34 33 33 33 33 33 34 34 35 35 36 36 36 36 36 36 35 36 35 35 34 33 32 31 30 30 29 29 30 30 31 32 33 33 34 35 36 37 39 40 40 40 40 40 41 42 43 44 45 46 47 47 48
46 45 45 44 44 43 43 42 41 41 40 40 39 38 37 37 36 36 36 36 37 37 37 37 37 36 35 35 35 35 35 35 34 34 34 33 33 33 34 34 35 35 36 36 36 37 37 37 37 37 36 36 35 35 34 33 32 32 31 31 31 31 31 32 33 34 34 35 36 37 38 39 40 41 41 41 41 41 42 44 45 46 46 47 47
45 44 44 43 43 42 42 41 41 40 40 39 38 37 37 36 36 36 35 35 36 36 36 37 37 37 36 36 35 35 35 35 35 35 35 35 35 35 35 35 35 36 36 37 37 37 37 37 37 37 37 37 36 36 35 35 34 34 34 33 33 32 32 32 33 34 34 35 36 37 38 39 40 41 42 42 42 42 42 43 44 45 46 46 47
44 43 43 43 42 41 41 40 40 39 39 39 38 37 37 36 36 36 35 35 35 35 36 36 37 37 37 37 37 37 36 36 36 36 35 36 36 36 36 36 36 36 37 38 38 38 38 38 38 38 37 38 37 37 36 36 36 35 35 35 35 34 34 34 34 34 34 35 36 37 38 39 40 41 42 43 43 43 43 42 43 44 45 46 47
43 43 42 42 42 41 40 40 39 39 39 39 38 38 38 37 37 36 36 36 36 36 36 37 37 38 38 38 39 38 38 38 38 37 37 37 37 37 37 37 37 37 38 38 39 39 39 39 39 38 38 38 38 38 37 37 36 36 36 36 36 36 36 36 35 35 35 36 36 37 38 38 39 41 42 43 44 44 43 43 43 43 44 45 46
43 42 42 42 42 41 41 40 40 39 39 39 39 39 39 39 38 38 38 37 37 37 37 37 38 38 39 39 40 40 40 40 40 40 39 39 38 38 38 38 38 38 38 39 39 40 40 40 40 40 39 39 38 38 38 37 37 37 37 37 37 37 37 37 37 37 37 37 37 37 38 38 39 40 41 43 44 44 44 44 44 44 44 44 45
43 43 42 42 42 42 42 41 41 40 40 40 41 41 40 40 40 40 40 39 39 39 39 39 39 39 40 40 41 41 42 42 42 42 42 41 41 40 40 40 40 39 40 40 40 40 40 41 40 40 40 40 39 39 39 38 38 38 38 38 38 38 38 38 38 38 38 38 38 38 39 39 39 40 41 42 43 44 45 45 45 44 44 44 45
45 44 44 43 43 42 42 42 42 42 42 42 42 42 42 42 41 41 41 41 41 41 40 40 41 41 41 42 42 42 43 43 44 44 44 44 43 43 42 42 42 42 41 41 41 41 42 42 42 41 41 41 41 40 40 39 39 39 39 39 39 39 39 39 39 39 39 38 38 39 40 40 40 41 41 42 43 44 45 46 46 45 45 45 45
47 46 45 44 44 43 43 43 43 43 43 43 43 43 43 43 43 43 43 43 42 42 42 42 42 42 43 43 43 44 44 44 45 45 45 45 45 45 44 44 44 44 43 43 43 43 43 43 43 43 43 42 42 42 41 41 41 40 40 40 40 40 40 40 40 40 39 39 39 39 40 40 41 42 42 42 43 43 44 46 46 46 46 45 45
47 47 46 45 45 44 43 43 43 43 43 43 43 43 44 44 44 44 44 44 44 44 44 44 44 44 44 44 44 45 45 45 45 46 46 46 46 46 46 46 46 46 45 45 45 45 45 45 44 44 44 44 44 43 43 42 42 42 42 42 41 41 41 41 41 41 40 40 40 39 40 40 41 42 43 43 43 43 44 45 46 47 47 46 46
47 47 47 46 46 45 45 44 44 44 44 44 44 44 44 44 45 45 45 45 45 45 45 45 45 45 45 45 45 45 45 45 46 46 46 47 47 47 47 47 47 47 47 47 46 46 46 46 46 45 45 45 45 45 44 44 44 43 43 43 43 43 43 42 42 42 42 41 41 40 40 40 41 42 43 44 44 44 44 45 46 47 47 47 47
48 48 47 47 47 46 46 46 45 45 45 45 45 45 45 45 45 45 45 45 46 46 46 46 46 46 46 46 46 46 46 46 46 47 47 47 47 47 48 48 48 48 48 48 48 47 47 47 46 46 46 46 46 45 45 45 45 45 45 45 45 45 44 44 43 43 43 43 42 41 41 41 41 41 43 44 45 45 45 45 45 46 47 47 47
Wind_Direction
336 334 333 332 330 329 328 327 325 325 324 324 323 323 322 321 321 320 319 316 313 311 310 309 307 305 304 303 300 297 292 288 284 280 275 270 264 260 257 255 252 249 246 243 242 240 238 236 235 234 233 233 233 233 232 231 231 231 231 231 231 231 230 230 230 230 229 229 228 229 229 230 230 232 233 234 235 236 236 235 235 236 237 238 238
335 334 333 331 330 329 328 326 325 325 324 323 322 322 322 321 320 319 319 316 314 311 310 309 308 306 304 303 301 299 295 291 287 283 279 274 269 263 259 256 254 251 249 246 243 241 240 238 236 235 234 233 233 233 233 231 231 230 230 230 231 231 231 230 230 230 230 230 229 229 229 229 230 231 232 234 234 235 236 236 236 236 237 238 238
335 333 332 331 330 328 327 326 325 325 324 323 322 321 321 320 319 319 318 316 313 311 310 309 308 306 305 303 302 300 298 294 290 286 281 277 273 268 262 258 255 252 251 249 246 243 241 239 238 236 235 234 233 233 233 232 231 230 230 230 230 231 231 231 230 230 230 230 230 229 229 229 230 230 232 233 234 235 236 236 236 236 237 237 238
334 332 331 331 329 328 327 326 326 325 324 322 321 320 320 319 318 318 317 316 313 311 310 309 308 306 305 304 302 301 299 297 293 289 284 280 276 272 266 261 258 255 251 250 249 246 243 240 239 238 237 236 234 233 233 233 232 231 230 230 230 230 231 231 231 230 230 230 231 230 230 229 229 230 231 232 233 235 235 236 236 237 237 237 238
333 331 330 330 329 327 327 327 326 325 323 322 321 320 319 318 317 317 317 315 313 311 310 309 308 307 305 304 302 301 300 299 296 292 288 282 278 274 270 265 261 258 254 251 250 248 246 243 240 239 238 237 236 234 233 233 232 232 231 231 230 230 230 230 231 231 231 230 231 231 230 230 229 229 230 231 232 234 235 236 236 237 237 237 237
332 330 329 329 328 327 327 326 326 325 323 322 320 319 318 317 317 316 316 315 313 311 310 309 308 307 305 304 302 301 301 300 298 295 291 286 280 276 272 268 263 260 257 254 251 249 247 245 242 240 238 237 237 236 234 233 233 232 232 231 231 230 230 230 230 231 231 231 231 231 231 231 230 229 230 230 231 233 234 235 236 237 237 237 238
331 329 328 328 327 327 326 326 325 325 323 322 320 318 317 316 316 315 315 314 313 311 311 309 308 307 305 304 302 301 301 301 300 298 294 290 284 278 274 270 266 262 260 257 254 251 248 247 245 242 240 238 237 237 236 234 233 233 232 232 231 231 230 230 230 231 231 231 232 232 232 232 231 230 230 230 231 232 233 234 236 236 237 238 238
330 328 327 327 327 326 326 325 325 325 323 321 319 317 316 315 315 314 314 313 312 311 310 310 308 307 306 304 303 302 301 301 301 300 297 293 288 282 277 272 268 264 261 259 256 254 250 247 246 244 242 240 237 236 236 236 235 234 233 232 232 231 231 231 231 231 231 232 232 232 233 233 233 232 231 231 231 231 232 233 235 236 237 237 238
329 327 325 325 326 326 325 325 325 325 323 320 318 317 315 315 314 313 313 312 312 311 310 310 308 307 306 305 303 302 301 302 302 301 299 296 291 286 280 275 270 266 263 261 258 255 253 250 247 245 244 242 239 237 236 236 236 235 234 233 233 232 231 231 231 231 231 231 232 232 233 233 234 233 233 232 232 232 232 233 234 235 236 237 238
328 326 324 324 325 325 324 324 325 324 322 320 318 316 315 314 313 313 312 311 311 310 310 309 308 307 306 305 304 303 302 302 302 302 301 298 294 290 284 278 273 268 265 263 260 257 255 253 250 246 245 243 241 239 236 235 235 236 235 235 234 233 232 232 231 231 231 231 232 232 232 233 233 234 233 233 233 232 232 233 233 234 235 236 237
327 324 323 323 324 324 323 324 325 324 322 319 317 315 314 313 313 312 311 311 310 309 309 309 308 307 306 306 305 303 302 302 302 302 301 299 296 293 288 282 276 271 266 264 262 259 256 254 252 249 246 244 243 241 238 236 235 235 236 235 235 234 233 232 232 231 231 231 232 232 233 233 233 233 234 234 233 233 233 233 233 234 234 235 236
325 323 322 323 323 323 323 324 324 323 321 319 317 315 314 313 312 311 310 309 309 308 308 308 308 306 306 305 305 304 302 302 302 302 302 300 298 295 290 285 280 275 269 264 262 261 258 255 253 251 248 246 244 242 240 238 236 235 235 235 235 235 234 234 233 232 231 231 232 233 234 234 234 234 234 234 235 234 234 234 234 234 234 235 235
324 323 322 322 322 322 322 323 323 322 320 318 316 315 313 313 312 310 309 309 308 307 307 307 307 306 305 305 305 304 303 302 303 302 302 301 299 297 293 288 282 279 274 267 262 261 260 257 255 252 249 247 245 243 242 240 238 236 235 235 235 235 235 235 234 233 232 232 232 232 233 234 235 235 235 235 235 236 236 235 235 235 235 235 235
323 322 321 321 321 321 321 322 322 321 319 317 316 314 313 312 311 310 309 308 307 307 307 307 307 306 305 305 306 305 304 303 303 302 302 301 300 299 296 291 285 280 278 273 266 262 260 259 256 254 251 248 246 244 243 241 240 238 236 235 234 235 235 235 235 234 234 233 232 232 233 233 235 236 236 236 236 236 237 237 237 236 236 236 236
322 322 320 320 320 321 321 321 321 320 319 316 315 314 313 312 311 309 308 308 307 306 306 306 306 305 305 305 306 306 304 303 303 303 302 301 301 300 298 293 288 282 279 276 272 266 261 259 258 256 253 250 247 245 244 243 241 240 238 237 235 235 235 235 235 235 235 234 233 233 233 233 234 235 236 236 236 236 236 237 237 237 237 237 237
321 321 320 319 320 320 320 320 320 319 318 316 315 314 313 312 311 309 308 307 306 306 305 305 305 305 305 305 306 306 305 304 304 303 302 301 301 300 299 296 291 285 281 277 274 270 265 261 259 257 255 253 249 246 244 244 243 241 240 238 237 236 235 235 235 236 236 235 234 234 234 234 234 235 236 236 236 236 236 236 237 237 238 238 238
320 320 318 318 319 319 319 320 319 318 317 316 315 314 313 312 311 310 309 307 306 305 305 305 305 304 305 305 306 306 305 304 304 303 302 301 301 300 299 297 293 288 283 279 276 273 268 263 260 258 257 255 253 249 245 243 243 242 241 239 238 237 236 236 235 235 235 236 235 235 235 234 234 235 236 236 237 237 237 237 236 237 237 237 238
319 319 317 316 317 318 318 318 318 317 316 315 315 314 313 312 311 310 309 308 306 305 305 305 305 304 305 306 306 306 305 304 304 304 303 302 301 300 300 298 295 290 285 281 279 275 271 266 262 259 258 256 255 252 248 244 243 242 242 240 239 238 237 237 236 236 235 235 235 236 236 235 235 235 235 236 236 237 238 238 237 237 237 237 237
318 317 316 315 316 317 317 317 317 316 315 315 314 313 312 311 310 310 309 308 306 306 305 305 305 304 305 306 306 306 305 304 304 304 303 302 301 301 300 298 296 292 287 283 280 278 275 270 265 261 259 257 256 255 252 248 244 242 241 241 240 239 238 237 237 236 236 235 235 235 236 236 236 236 236 236 236 237 237 238 238 238 238 237 237
316 316 315 315 315 316 317 316 316 315 315 314 314 313 311 311 310 309 309 308 306 305 305 306 305 304 305 305 306 306 305 304 304 304 304 303 302 301 300 299 297 293 289 285 282 280 277 273 268 264 261 259 258 257 255 252 247 244 242 241 240 239 239 238 237 237 237 236 236 236 236 236 236 236 236 237 237 237 237 237 238 239 239 238 238
315 315 314 314 314 316 316 315 315 314 314 314 313 312 311 310 309 309 308 307 306 305 306 306 305 304 304 305 305 305 304 304 304 304 304 303 302 301 300 299 297 294 290 287 283 281 279 276 272 268 264 261 260 259 257 255 252 247 244 241 240 239 239 239 238 238 237 237 237 236 236 236 236 236 237 237 237 237 237 237 238 238 239 239 239
314 313 313 312 313 315 314 314 314 313 313 313 312 311 310 309 309 308 308 307 306 305 305 305 304 303 303 304 304 304 304 303 304 304 304 303 302 301 300 299 297 294 291 288 285 282 280 277 274 271 267 264 262 260 259 257 255 251 248 244 241 240 239 239 239 239 239 238 238 238 237 237 237 237 237 237 237 238 238 238 238 238 238 239 239
312 312 312 311 313 314 313 313 313 312 312 312 311 310 309 309 309 308 307 306 306 305 305 305 304 303 303 303 304 304 303 303 303 303 303 303 302 301 300 299 298 295 292 289 287 284 281 278 275 273 270 266 263 261 260 258 256 254 251 248 245 242 240 239 239 239 239 239 239 238 238 237 237 237 238 238 238 238 238 239 239 239 238 238 238
311 311 311 311 312 312 312 312 311 311 311 310 310 309 308 308 308 308 307 307 306 306 306 305 304 303 303 303 304 304 303 303 303 303 303 302 302 302 301 300 298 296 292 290 288 286 284 280 277 274 272 269 266 264 262 260 258 256 253 250 248 246 244 241 240 239 239 239 239 239 239 238 237 238 238 238 238 238 238 238 239 239 238 238 238
310 310 310 310 311 311 311 311 310 310 309 309 308 307 307 307 307 307 307 307 306 306 306 304 303 303 303 303 303 303 303 303 303 303 303 303 303 302 301 300 299 297 293 290 288 287 285 283 279 276 274 271 268 266 264 262 261 259 256 252 250 248 246 245 242 241 240 240 240 239 239 238 238 238 238 238 238 238 238 238 238 238 238 238 238
309 309 309 310 311 310 310 310 309 308 308 307 306 306 306 306 306 306 306 306 306 306 305 304 303 302 302 302 303 303 303 302 303 303 303 303 303 303 302 300 299 297 294 290 288 287 286 284 281 278 275 273 270 267 265 264 262 261 259 256 252 249 248 247 245 243 242 241 241 240 240 239 238 237 237 237 238 238 238 238 239 239 238 238 238
309 309 310 310 310 310 309 309 308 307 307 306 305 304 305 305 305 305 305 305 305 305 304 303 302 302 302 302 302 302 302 302 302 303 303 303 303 303 302 301 300 298 295 291 289 288 286 285 283 280 277 275 272 269 267 265 264 262 261 259 256 253 250 248 247 246 244 243 242 242 241 240 239 238 237 238 238 238 238 238 239 239 239 238 238
310 310 310 310 310 309 309 308 307 306 305 304 303 303 303 304 304 304 304 304 304 303 302 302 302 302 302 302 302 302 301 302 302 303 303 303 302 302 302 301 300 299 296 292 290 288 287 285 283 281 279 277 275 272 269 266 265 263 261 260 258 256 253 250 249 247 246 245 244 243 242 242 241 240 239 238 239 239 239 238 239 239 239 239 238
310 310 310 310 309 309 308 307 306 305 304 303 302 302 303 303 303 303 303 303 302 301 301 301 301 301 301 301 301 301 301 301 302 302 302 302 302 301 301 300 300 299 297 293 290 288 286 285 283 281 279 278 276 274 272 269 266 264 263 261 259 257 256 253 251 249 248 247 245 244 243 242 242 241 240 239 239 239 239 240 240 239 239 239 239
311 310 310 310 309 308 307 307 306 305 303 302 302 301 302 302 302 302 302 302 301 300 299 299 299 300 300 300 300 300 300 300 301 301 301 301 301 301 300 300 299 298 297 294 291 288 286 285 283 282 280 278 277 276 275 272 269 266 264 263 261 259 256 255 253 252 250 248 247 246 244 243 243 242 241 241 240 239 240 240 240 240 240 240 240
311 310 310 310 309 308 307 306 305 304 303 302 301 300 301 302 302 301 301 301 300 299 298 298 298 298 299 299 299 299 299 299 299 300 300 300 299 299 299 299 299 298 297 295 293 291 289 286 284 282 280 279 278 277 276 275 272 269 266 264 263 261 258 256 254 252 251 250 249 247 246 244 243 243 242 242 241 240 240 240 240 241 241 241 241
311 311 311 310 309 307 306 305 304 303 302 301 300 300 300 301 301 300 300 300 299 298 298 298 298 298 298 298 298 298 298 297 298 298 298 298 298 298 299 299 299 298 298 297 295 293 292 289 286 283 281 279 279 278 277 276 275 272 268 265 264 262 261 258 255 253 252 250 250 249 247 246 244 243 243 243 242 242 241 240 240 241 241 242 242
312 311 311 310 308 307 306 305 303 302 301 300 299 299 299 300 299 299 299 299 298 298 297 297 297 297 297 297 297 297 297 297 297 297 298 298 297 298 298 298 299 298 298 297 296 295 294 293 290 285 282 279 278 278 277 277 276 274 271 268 265 263 262 260 258 256 253 251 250 249 248 247 246 245 243 243 242 242 242 242 241 241 241 242 242
312 312 311 310 308 307 305 304 303 301 301 299 298 298 298 298 298 298 298 298 297 297 297 296 296 296 296 296 296 296 296 296 296 296 297 297 297 297 297 298 298 298 298 297 297 296 295 294 292 288 284 280 278 277 277 277 276 275 274 271 268 264 262 261 259 258 256 254 252 250 249 248 247 247 246 244 243 242 242 242 242 242 242 242 242
313 312 311 310 308 306 305 304 302 301 300 299 297 297 297 297 297 297 297 297 296 296 296 295 295 294 295 295 295 295 295 295 295 295 296 296 296 296 296 296 296 296 297 297 297 297 296 295 294 291 287 282 278 276 276 276 276 276 276 274 272 269 265 263 260 259 257 255 253 252 251 249 248 247 247 246 245 243 242 242 242 242 243 243 243
314 313 312 310 308 306 305 304 302 301 299 298 297 296 296 296 296 296 296 295 295 295 294 294 293 293 294 294 294 294 294 293 294 294 295 295 295 294 294 294 295 295 295 296 296 296 296 296 295 293 290 286 282 278 276 275 276 276 276 276 275 273 270 266 263 261 259 257 255 253 252 251 249 248 247 247 247 246 245 243 242 242 242 243 243
314 313 312 309 307 306 305 303 302 300 299 297 296 295 295 295 295 295 294 294 293 293 292 292 292 292 292 292 292 292 292 292 293 293 294 294 294 293 293 293 293 293 294 294 295 295 295 295 295 294 292 289 285 281 278 276 275 276 276 276 276 275 273 271 268 264 262 260 258 255 253 252 251 250 249 248 247 247 246 245 244 243 242 242 243
314 313 311 309 307 305 304 303 301 299 297 296 295 294 294 294 293 293 293 293 292 291 291 291 291 291 291 291 291 291 291 291 292 292 293 293 293 292 292 291 291 291 291 292 293 293 294 294 295 294 293 291 288 285 282 279 277 276 276 276 276 275 275 273 271 268 265 263 260 258 256 254 252 251 250 249 248 247 247 246 246 245 244 243 243
314 312 310 308 306 305 303 302 300 298 296 295 293 293 292 292 292 292 292 292 292 292 291 291 290 289 289 289 289 289 290 290 291 291 292 291 291 291 290 290 290 290 290 291 291 292 293 294 294 294 293 292 289 287 284 282 280 279 278 277 277 276 275 274 273 271 268 265 263 261 259 257 256 253 251 250 249 249 248 247 247 246 246 245 244
313 311 309 307 305 304 303 301 299 297 295 294 293 292 291 291 291 290 291 291 291 291 291 291 290 289 288 288 288 288 289 290 291 291 291 290 290 289 289 288 289 289 290 291 292 293 293 294 293 293 293 292 290 288 286 284 283 282 281 279 279 277 276 275 273 272 270 267 265 262 260 259 258 256 254 252 250 250 249 249 248 247 247 246 246
311 309 308 306 304 303 302 300 298 296 295 294 292 291 291 290 290 289 290 290 290 290 291 291 290 289 288 287 287 287 288 289 290 290 290 290 289 288 288 287 287 288 289 290 291 291 292 292 292 292 292 292 291 290 288 286 285 284 283 282 281 280 278 276 274 273 271 269 267 264 261 259 257 257 256 255 253 251 249 249 249 248 247 247 247
309 308 306 305 303 302 300 299 297 296 294 293 292 291 290 289 289 289 289 289 289 289 289 289 289 288 287 286 286 286 287 288 289 289 289 289 289 288 288 287 287 287 287 288 288 289 290 290 290 291 291 290 290 289 288 287 286 285 285 284 284 283 281 279 276 274 272 270 268 266 263 260 258 256 256 256 255 253 251 250 249 248 248 247 247
307 306 305 303 302 301 300 298 297 296 295 293 292 291 290 289 289 288 288 287 287 287 287 287 287 287 286 286 285 285 285 285 286 286 287 287 287 287 287 287 287 287 287 288 288 289 289 289 289 289 288 288 288 288 287 286 286 286 286 286 286 286 284 282 280 277 273 271 268 267 265 263 260 257 255 255 255 255 254 252 251 249 249 248 247
305 304 303 303 302 301 300 299 298 297 296 294 293 292 291 290 289 288 287 287 286 286 285 285 285 285 285 284 284 284 284 283 283 283 284 284 284 285 285 285 285 286 286 286 287 287 288 287 287 287 286 286 286 286 285 285 285 285 285 286 287 287 287 285 283 281 277 274 270 267 265 264 262 260 257 255 254 254 254 254 253 252 251 250 248
304 303 302 302 302 301 301 300 299 298 296 295 293 292 291 291 290 289 288 287 286 285 285 284 284 283 283 283 283 283 283 283 283 283 283 283 283 283 283 283 283 283 284 284 285 285 286 286 286 285 285 285 284 284 284 284 284 284 284 284 285 286 287 286 285 283 281 277 274 270 267 264 262 261 259 257 255 253 253 253 253 253 253 252 251
303 303 302 302 302 302 301 300 299 298 297 295 294 293 292 291 290 289 288 287 286 285 284 284 283 282 282 281 281 281 281 282 282 282 283 283 283 283 283 283 283 283 283 283 283 284 284 284 284 284 284 284 284 283 283 283 283 283 283 283 283 284 285 285 285 284 282 280 277 273 270 267 264 261 259 258 256 254 253 252 252 253 253 253 253
303 302 302 301 301 300 300 299 298 297 296 294 293 292 292 291 290 289 288 287 286 285 284 283 282 281 281 281 280 280 281 281 281 282 282 283 283 284 283 284 283 283 284 284 284 284 284 284 284 284 284 284 283 283 283 282 282 282 282 282 282 283 284 284 284 284 282 280 278 275 273 270 267 263 260 258 256 255 253 252 252 251 252 252 253
302 301 300 299 299 298 297 297 296 296 295 294 293 292 291 290 289 288 287 286 285 284 283 283 282 281 281 280 280 280 280 281 281 282 282 283 283 283 284 284 284 284 284 284 284 284 284 284 284 284 284 284 283 283 282 282 282 282 282 282 282 282 283 283 283 282 282 280 278 276 274 271 269 266 263 260 257 255 253 252 251 251 250 251 251
302 301 300 298 297 297 296 295 295 294 293 293 292 291 290 289 288 288 287 286 285 284 283 283 282 281 281 280 280 280 280 281 281 281 281 282 282 282 283 283 283 283 283 283 283 283 283 284 284 284 284 284 283 283 282 282 282 282 282 282 282 282 282 282 282 282 281 279 278 275 273 272 270 268 265 262 259 257 254 252 251 250 250 250 250
304 303 301 300 298 297 296 295 294 293 293 292 291 291 290 289 288 288 287 287 286 285 284 283 282 282 281 280 280 280 280 280 280 280 280 280 280 281 281 281 281 282 282 282 282 282 282 282 282 282 283 282 282 282 282 282 282 282 282 281 281 281 281 281 282 281 280 279 277 275 273 270 269 268 267 265 262 259 256 254 252 251 250 249 249
307 306 304 302 300 299 298 296 295 294 293 292 291 290 290 289 288 288 287 287 286 285 284 284 283 282 281 281 280 279 279 279 278 278 278 278 278 278 279 279 279 280 280 280 281 281 281 281 281 281 281 281 281 281 282 282 282 281 281 281 281 281 281 281 281 280 280 278 277 275 273 270 268 266 265 264 263 261 259 256 254 252 250 249 249
Height
10186 10177 10168 10159 10151 10143 10135 10128 10121 10114 10108 10102 10096 10090 10085 10080 10075 10071 10066 10062 10057 10052 10049 10045 10042 10039 10036 10033 10031 10029 10027 10025 10023 10021 10019 10019 10019 10018 10018 10018 10020 10021 10022 10024 10026 10028 10030 10034 10037 10042 10046 10050 10054 10059 10066 10073 10081 10088 10095 10102 10108 10114 10122 10129 10139 10150 10157 10168 10182 10191 10201 10212 10220 10228 10235 10242 10248 10256 10265 10275 10284 10291 10296 10301 10310
10177 10168 10159 10150 10142 10135 10127 10120 10113 10106 10100 10094 10088 10083 10077 10072 10067 10063 10059 10055 10050 10046 10042 10038 10035 10032 10029 10026 10023 10021 10020 10018 10015 10013 10011 10010 10010 10010 10009 10009 10010 10011 10012 10013 10015 10017 10019 10022 10026 10030 10033 10037 10040 10045 10051 10058 10065 10072 10079 10086 10092 10098 10105 10114 10124 10133 10140 10150 10162 10171 10181 10192 10201 10210 10218 10224 10231 10238 10246 10255 10264 10272 10278 10283 10290
10168 10159 10151 10142 10133 10126 10119 10112 10106 10099 10092 10086 10081 10076 10071 10065 10060 10056 10052 10048 10044 10040 10036 10032 10028 10025 10022 10019 10016 10014 10012 10010 10008 10006 10004 10002 10001 10001 10001 10000 10001 10001 10002 10003 10004 10006 10009 10012 10015 10018 10020 10023 10027 10032 10037 10044 10051 10057 10063 10069 10077 10082 10089 10098 10107 10115 10123 10131 10140 10149 10161 10172 10183 10192 10200 10206 10214 10221 10228 10235 10243 10252 10260 10266 10272
10158 10150 10142 10134 10125 10117 10111 10104 10098 10091 10084 10078 10073 10068 10064 10058 10053 10049 10045 10041 10037 10034 10030 10026 10022 10019 10015 10012 10009 10007 10005 10003 10001 9999 9997 9995 9994 9993 9992 9992 9991 9992 9993 9994 9994 9996 9999 10001 10003 10006 10008 10011 10015 10019 10025 10031 10037 10043 10048 10054 10061 10067 10073 10081 10090 10098 10106 10113 10120 10129 10140 10151 10162 10172 10181 10189 10196 10203 10209 10216 10224 10232 10240 10247 10254
10149 10140 10132 10125 10117 10109 10102 10097 10090 10083 10076 10070 10065 10060 10056 10051 10046 10041 10038 10034 10031 10027 10023 10019 10016 10012 10009 10005 10002 9999 9997 9995 9994 9992 9990 9988 9986 9985 9984 9984 9983 9982 9983 9985 9985 9986 9988 9990 9993 9995 9997 10000 10003 10008 10013 10018 10024 10029 10034 10040 10046 10052 10058 10066 10074 10081 10089 10096 10102 10109 10118 10129 10140 10152 10161 10170 10177 10183 10190 10197 10205 10212 10219 10227 10235
10140 10130 10122 10115 10108 10101 10094 10089 10082 10075 10068 10063 10057 10052 10048 10043 10039 10034 10030 10027 10023 10020 10017 10013 10009 10006 10002 9999 9996 9993 9990 9988 9986 9985 9983 9981 9979 9977 9976 9976 9975 9974 9974 9975 9976 9977 9978 9980 9982 9984 9986 9989 9992 9996 10001 10005 10010 10015 10020 10025 10032 10038 10043 10051 10059 10065 10072 10080 10085 10089 10095 10107 10120 10131 10141 10150 10158 10166 10173 10180 10186 10193 10200 10207 10215
10131 10121 10112 10106 10100 10093 10086 10080 10074 10068 10061 10055 10049 10045 10040 10036 10031 10027 10023 10019 10016 10013 10010 10006 10003 9999 9996 9993 9989 9986 9983 9981 9979 9977 9976 9974 9972 9970 9969 9968 9967 9965 9965 9966 9967 9967 9969 9970 9971 9973 9976 9978 9982 9985 9989 9993 9997 10002 10006 10012 10018 10025 10030 10037 10044 10051 10058 10064 10069 10073 10078 10087 10099 10111 10121 10130 10139 10148 10157 10163 10169 10175 10181 10187 10195
10122 10112 10103 10096 10090 10085 10078 10072 10066 10060 10053 10047 10042 10037 10033 10029 10024 10020 10016 10012 10008 10005 10002 9999 9996 9993 9989 9986 9983 9979 9976 9973 9971 9970 9968 9966 9964 9963 9961 9960 9959 9958 9957 9957 9958 9958 9959 9961 9962 9963 9965 9968 9971 9974 9978 9981 9985 9989 9994 9999 10005 10011 10017 10023 10029 10037 10043 10049 10055 10060 10065 10071 10082 10094 10105 10114 10122 10132 10140 10145 10150 10155 10161 10169 10177
10114 10104 10094 10087 10081 10075 10069 10063 10058 10052 10046 10039 10034 10029 10025 10021 10017 10013 10008 10004 10001 9997 9995 9992 9989 9986 9983 9980 9976 9972 9969 9966 9964 9962 9961 9959 9957 9955 9954 9952 9951 9950 9949 9949 9950 9950 9951 9952 9953 9954 9955 9958 9961 9964 9967 9970 9973 9977 9982 9987 9993 9998 10004 10009 10015 10022 10028 10034 10039 10044 10049 10055 10064 10075 10085 10094 10105 10114 10119 10123 10130 10138 10145 10153 10160
10106 10096 10086 10079 10072 10066 10060 10055 10050 10044 10038 10032 10026 10021 10017 10013 10009 10005 10001 9997 9993 9990 9987 9985 9982 9979 9976 9973 9970 9966 9963 9960 9957 9955 9953 9952 9950 9948 9946 9944 9943 9943 9942 9941 9941 9942 9942 9943 9944 9945 9946 9948 9951 9954 9957 9960 9962 9965 9970 9975 9980 9986 9990 9996 10002 10008 10014 10019 10023 10027 10032 10038 10045 10053 10062 10072 10082 10091 10097 10104 10114 10122 10128 10135 10144
10097 10087 10078 10070 10064 10057 10051 10046 10041 10035 10029 10023 10018 10013 10009 10005 10001 9997 9993 9989 9986 9983 9980 9977 9975 9972 9969 9967 9963 9959 9956 9953 9951 9948 9946 9944 9943 9941 9939 9937 9935 9936 9935 9933 9932 9933 9934 9934 9935 9936 9937 9939 9941 9943 9946 9949 9952 9955 9959 9964 9968 9973 9977 9982 9988 9994 9999 10004 10008 10012 10016 10021 10026 10033 10041 10050 10058 10067 10076 10086 10095 10104 10109 10117 10129
10088 10078 10069 10061 10055 10048 10042 10037 10033 10027 10021 10015 10010 10005 10001 9997 9994 9990 9986 9983 9979 9976 9973 9971 9968 9965 9963 9960 9957 9953 9950 9947 9945 9942 9939 9937 9936 9935 9933 9930 9928 9927 9928 9927 9925 9924 9925 9926 9926 9927 9929 9930 9931 9933 9936 9939 9942 9945 9949 9952 9956 9960 9964 9968 9973 9979 9985 9991 9995 9999 10003 10006 10010 10017 10025 10032 10039 10047 10057 10067 10076 10085 10092 10100 10110
10077 10068 10060 10053 10046 10040 10034 10029 10024 10019 10013 10008 10003 9998 9994 9990 9986 9982 9979 9975 9972 9969 9966 9963 9961 9958 9956 9954 9951 9948 9943 9941 9939 9936 9933 9930 9929 9927 9926 9924 9921 9920 9919 9920 9919 9917 9917 9918 9918 9919 9920 9921 9922 9924 9926 9929 9932 9935 9939 9942 9945 9948 9952 9956 9960 9965 9972 9977 9982 9986 9990 9993 9996 10002 10010 10018 10026 10034 10042 10051 10060 10068 10075 10082 10092
10066 10058 10050 10044 10038 10031 10026 10021 10016 10011 10005 10000 9995 9990 9986 9983 9979 9975 9972 9968 9965 9961 9958 9956 9954 9951 9949 9947 9945 9941 9937 9934 9932 9929 9926 9924 9922 9920 9919 9917 9915 9913 9912 9911 9911 9911 9910 9910 9910 9911 9912 9913 9914 9915 9916 9919 9921 9924 9928 9931 9934 9937 9941 9944 9947 9952 9958 9965 9969 9972 9975 9979 9982 9986 9993 10003 10013 10021 10028 10036 10044 10052 10060 10069 10080
10055 10047 10040 10034 10029 10022 10017 10012 10008 10003 9997 9992 9987 9983 9979 9975 9972 9968 9965 9961 9958 9954 9951 9949 9947 9944 9942 9940 9938 9935 9931 9928 9926 9923 9920 9917 9915 9913 9912 9910 9909 9907 9905 9904 9903 9904 9903 9902 9902 9903 9904 9904 9905 9906 9908 9909 9912 9915 9918 9921 9924 9927 9930 9933 9936 9940 9945 9951 9955 9958 9961 9966 9970 9972 9977 9986 9996 10004 10012 10018 10026 10035 10045 10056 10067
10044 10037 10030 10024 10019 10014 10008 10003 9999 9994 9989 9984 9980 9975 9971 9968 9964 9961 9958 9954 9951 9948 9945 9942 9940 9937 9936 9934 9932 9929 9925 9922 9920 9918 9914 9911 9909 9906 9905 9904 9902 9900 9899 9897 9896 9896 9896 9895 9895 9895 9895 9896 9897 9898 9900 9901 9902 9905 9908 9911 9914 9916 9919 9922 9926 9930 9934 9938 9942 9945 9949 9955 9960 9962 9965 9971 9977 9985 9993 10002 10011 10019 10027 10038 10050
10033 10027 10021 10014 10010 10005 10000 9995 9990 9986 9981 9976 9972 9968 9964 9960 9957 9953 9950 9947 9944 9940 9938 9935 9932 9930 9928 9927 9925 9923 9919 9916 9914 9911 9908 9905 9903 9900 9899 9897 9895 9894 9892 9890 9889 9889 9889 9888 9888 9887 9888 9888 9889 9890 9891 9892 9894 9896 9899 9901 9903 9906 9909 9913 9916 9919 9923 9926 9929 9931 9935 9941 9947 9950 9953 9957 9962 9968 9976 9986 9995 10001 10007 10019 10031
10023 10018 10012 10006 10001 9996 9991 9987 9982 9978 9973 9969 9964 9960 9956 9953 9949 9945 9943 9940 9936 9933 9930 9928 9925 9922 9921 9919 9918 9916 9913 9910 9907 9905 9902 9899 9897 9894 9892 9890 9888 9887 9886 9884 9882 9882 9882 9881 9881 9880 9880 9880 9881 9882 9883 9884 9886 9887 9889 9891 9893 9896 9900 9903 9905 9908 9911 9913 9915 9918 9922 9928 9933 9937 9940 9944 9948 9954 9961 9968 9974 9980 9990 10003 10013
10013 10008 10003 9997 9992 9987 9983 9978 9974 9969 9965 9961 9957 9953 9949 9945 9942 9938 9935 9932 9929 9925 9923 9921 9918 9915 9914 9912 9911 9909 9907 9904 9901 9899 9896 9893 9891 9889 9886 9884 9882 9880 9879 9878 9876 9875 9874 9874 9874 9873 9873 9872 9873 9874 9874 9876 9878 9879 9880 9882 9884 9888 9891 9892 9894 9896 9899 9901 9904 9907 9911 9916 9922 9926 9928 9931 9935 9941 9947 9952 9956 9963 9974 9986 9993
10003 9998 9993 9988 9982 9978 9974 9969 9965 9961 9957 9953 9949 9945 9942 9938 9935 9931 9928 9925 9922 9918 9916 9914 9911 9908 9906 9905 9904 9902 9901 9898 9895 9893 9890 9887 9885 9883 9881 9879 9876 9874 9872 9871 9870 9868 9868 9867 9867 9866 9865 9865 9865 9866 9866 9867 9869 9870 9872 9874 9876 9879 9880 9881 9882 9885 9888 9891 9893 9897 9901 9905 9910 9913 9916 9919 9923 9928 9933 9937 9941 9948 9958 9968 9976
9994 9988 9984 9978 9973 9969 9965 9960 9956 9952 9949 9945 9942 9938 9934 9931 9928 9924 9921 9918 9914 9911 9909 9907 9904 9901 9899 9898 9897 9895 9894 9892 9889 9887 9884 9882 9879 9877 9875 9873 9871 9868 9866 9864 9864 9863 9862 9861 9860 9859 9859 9858 9858 9858 9859 9859 9860 9862 9863 9865 9867 9869 9869 9871 9873 9876 9878 9880 9883 9887 9890 9894 9898 9901 9904 9907 9911 9915 9920 9924 9929 9935 9943 9952 9959
9984 9979 9975 9969 9964 9960 9956 9951 9947 9944 9940 9937 9934 9930 9927 9924 9921 9917 9914 9911 9907 9905 9902 9900 9897 9894 9892 9891 9890 9889 9887 9886 9883 9881 9879 9876 9873 9871 9869 9867 9865 9863 9860 9858 9857 9857 9856 9855 9853 9852 9852 9852 9851 9851 9852 9852 9852 9853 9854 9856 9858 9859 9860 9862 9865 9867 9869 9871 9874 9877 9881 9884 9888 9890 9893 9897 9900 9905 9909 9913 9918 9924 9931 9938 9942
9974 9970 9966 9960 9955 9951 9947 9943 9939 9935 9932 9929 9926 9923 9920 9917 9914 9910 9907 9904 9901 9898 9896 9894 9891 9888 9885 9883 9883 9882 9881 9879 9877 9876 9873 9871 9868 9865 9863 9861 9859 9857 9855 9853 9851 9850 9850 9849 9848 9846 9845 9845 9845 9844 9844 9845 9845 9845 9846 9847 9849 9850 9852 9854 9856 9858 9860 9862 9864 9867 9871 9875 9878 9881 9883 9887 9891 9896 9899 9902 9906 9911 9917 9922 9926
9964 9960 9956 9951 9947 9943 9938 9934 9931 9927 9924 9921 9919 9916 9913 9909 9907 9904 9900 9897 9894 9891 9889 9887 9885 9882 9879 9877 9875 9875 9873 9872 9870 9869 9867 9865 9863 9860 9858 9855 9853 9851 9849 9847 9845 9844 9843 9843 9842 9840 9839 9838 9838 9838 9838 9838 9838 9838 9838 9839 9840 9841 9843 9845 9848 9849 9851 9853 9855 9858 9861 9865 9868 9871 9874 9878 9882 9885 9887 9889 9892 9897 9902 9907 9911
9954 9950 9946 9942 9937 9934 9930 9926 9922 9919 9916 9913 9911 9908 9906 9902 9900 9897 9894 9890 9887 9885 9882 9880 9878 9876 9873 9871 9869 9867 9866 9865 9863 9862 9861 9859 9857 9855 9853 9850 9848 9846 9844 9842 9840 9838 9837 9836 9836 9835 9833 9832 9832 9831 9831 9831 9831 9831 9831 9831 9832 9833 9835 9837 9839 9841 9842 9844 9846 9849 9852 9855 9858 9861 9865 9867 9869 9871 9874 9877 9880 9884 9889 9893 9897
9944 9940 9936 9932 9928 9925 9921 9917 9914 9910 9908 9905 9903 9901 9898 9895 9893 9890 9887 9884 9881 9878 9876 9873 9871 9869 9867 9865 9862 9861 9860 9859 9857 9856 9854 9852 9850 9849 9847 9845 9843 9841 9839 9837 9835 9833 9831 9830 9830 9829 9827 9827 9826 9825 9825 9824 9824 9825 9824 9824 9825 9826 9827 9828 9830 9832 9834 9836 9838 9840 9843 9845 9848 9851 9853 9855 9857 9860 9863 9866 9870 9873 9877 9881 9884
9934 9930 9926 9922 9918 9915 9912 9909 9905 9902 9900 9897 9895 9893 9891 9888 9886 9883 9881 9878 9875 9872 9869 9867 9865 9863 9861 9858 9856 9854 9853 9852 9851 9849 9848 9846 9844 9842 9841 9839 9837 9836 9834 9832 9830 9827 9826 9825 9824 9823 9822 9821 9820 9819 9819 9818 9818 9818 9818 9818 9818 9819 9820 9821 9822 9824 9826 9827 9829 9831 9833 9836 9838 9840 9843 9845 9846 9850 9853 9856 9859 9862 9866 9870 9873
9923 9920 9916 9912 9909 9906 9903 9900 9897 9894 9892 9889 9887 9885 9883 9881 9878 9876 9874 9871 9868 9865 9863 9860 9858 9857 9855 9852 9850 9848 9846 9845 9844 9843 9841 9840 9838 9837 9835 9834 9832 9830 9829 9827 9825 9822 9821 9819 9818 9817 9816 9815 9814 9813 9812 9812 9812 9812 9812 9812 9812 9812 9812 9813 9814 9816 9818 9819 9821 9823 9825 9826 9828 9830 9833 9835 9837 9840 9843 9845 9847 9850 9854 9858 9860
9914 9910 9906 9903 9900 9897 9894 9891 9888 9886 9884 9881 9879 9877 9875 9873 9871 9869 9867 9865 9862 9859 9857 9854 9852 9850 9848 9846 9844 9842 9840 9838 9837 9836 9835 9834 9832 9831 9830 9829 9827 9825 9824 9822 9820 9818 9816 9814 9813 9812 9810 9809 9808 9807 9806 9806 9806 9806 9806 9806 9806 9806 9806 9806 9807 9808 9810 9811 9813 9815 9816 9818 9819 9821 9824 9825 9827 9831 9833 9835 9837 9840 9844 9846 9847
9904 9901 9897 9894 9891 9888 9885 9883 9880 9878 9875 9873 9872 9869 9867 9865 9863 9861 9860 9858 9855 9853 9850 9848 9846 9845 9843 9840 9838 9836 9834 9832 9831 9830 9828 9827 9826 9825 9824 9823 9822 9820 9819 9817 9815 9814 9812 9810 9808 9806 9805 9803 9802 9801 9801 9800 9799 9799 9799 9799 9799 9800 9800 9800 9800 9801 9802 9803 9805 9807 9808 9809 9811 9813 9815 9816 9819 9822 9824 9825 9827 9830 9833 9835 9836
9895 9891 9889 9886 9883 9880 9877 9874 9872 9869 9867 9865 9864 9862 9860 9858 9855 9854 9852 9851 9849 9846 9844 9842 9840 9838 9837 9835 9832 9831 9829 9827 9825 9824 9823 9821 9820 9819 9818 9817 9816 9815 9814 9812 9810 9809 9807 9805 9803 9801 9799 9798 9797 9796 9795 9794 9794 9793 9793 9793 9793 9793 9793 9794 9794 9794 9795 9796 9797 9798 9800 9802 9803 9805 9806 9808 9810 9813 9814 9816 9817 9819 9821 9824 9825
9886 9883 9880 9877 9874 9872 9869 9866 9864 9861 9859 9857 9856 9854 9852 9850 9848 9846 9845 9843 9842 9839 9837 9835 9833 9831 9830 9828 9826 9825 9823 9821 9820 9818 9817 9816 9814 9813 9811 9810 9809 9809 9808 9807 9805 9803 9801 9800 9798 9796 9794 9793 9791 9790 9789 9789 9788 9787 9787 9787 9787 9787 9787 9787 9788 9788 9788 9789 9789 9791 9792 9793 9795 9797 9798 9800 9802 9804 9806 9807 9809 9810 9812 9814 9815
9878 9875 9872 9869 9866 9864 9861 9859 9856 9854 9852 9850 9848 9846 9845 9843 9841 9839 9837 9836 9834 9833 9831 9828 9826 9825 9823 9822 9820 9818 9817 9815 9814 9813 9811 9810 9808 9807 9805 9804 9803 9802 9801 9800 9799 9798 9796 9794 9793 9791 9790 9788 9786 9785 9784 9783 9782 9782 9781 9781 9781 9780 9780 9781 9781 9781 9782 9782 9782 9783 9784 9785 9787 9789 9790 9792 9794 9795 9797 9799 9800 9801 9803 9804 9806
9870 9867 9864 9861 9858 9856 9853 9851 9849 9846 9844 9842 9840 9839 9837 9836 9834 9832 9831 9829 9827 9826 9824 9822 9820 9818 9817 9815 9814 9813 9811 9809 9808 9807 9805 9804 9802 9801 9799 9798 9797 9796 9795 9794 9793 9792 9791 9789 9788 9786 9785 9783 9782 9780 9779 9778 9777 9776 9775 9775 9775 9775 9774 9774 9775 9775 9775 9775 9776 9776 9777 9778 9779 9780 9782 9784 9785 9787 9789 9790 9792 9793 9794 9795 9797
9862 9859 9857 9854 9851 9848 9846 9843 9841 9839 9837 9835 9833 9831 9830 9828 9827 9825 9824 9822 9820 9819 9817 9815 9813 9812 9810 9809 9808 9807 9805 9803 9802 9801 9799 9798 9797 9795 9794 9793 9791 9790 9789 9788 9787 9786 9785 9784 9783 9781 9780 9778 9777 9776 9774 9773 9772 9771 9770 9769 9769 9768 9768 9768 9768 9769 9769 9769 9769 9770 9770 9771 9772 9773 9774 9775 9777 9779 9781 9782 9784 9785 9786 9787 9788
9854 9852 9849 9846 9843 9841 9838 9836 9834 9832 9830 9828 9826 9824 9822 9821 9820 9818 9817 9816 9814 9813 9811 9809 9807 9806 9804 9803 9801 9800 9799 9798 9796 9795 9793 9792 9791 9790 9788 9787 9786 9785 9783 9782 9781 9780 9779 9778 9777 9776 9774 9773 9772 9771 9770 9768 9767 9766 9765 9763 9762 9762 9762 9762 9762 9762 9762 9762 9763 9763 9763 9764 9764 9765 9766 9768 9769 9771 9772 9774 9775 9777 9778 9779 9781
9847 9844 9842 9839 9836 9834 9831 9829 9827 9825 9823 9821 9819 9817 9815 9814 9812 9811 9810 9809 9808 9807 9805 9803 9801 9800 9798 9797 9795 9794 9793 9792 9791 9789 9788 9786 9785 9784 9783 9782 9780 9779 9778 9776 9775 9775 9774 9773 9771 9770 9769 9768 9766 9765 9764 9763 9762 9761 9760 9759 9757 9756 9755 9755 9755 9755 9755 9755 9756 9756 9757 9757 9757 9758 9759 9760 9761 9763 9764 9765 9767 9768 9770 9772 9773
9840 9837 9835 9832 9830 9827 9825 9823 9821 9819 9817 9815 9813 9811 9809 9807 9805 9804 9803 9801 9800 9799 9799 9798 9796 9794 9792 9791 9789 9788 9787 9786 9785 9784 9782 9781 9780 9778 9777 9776 9775 9774 9772 9771 9770 9769 9768 9767 9765 9764 9763 9762 9761 9760 9759 9758 9757 9756 9755 9754 9752 9751 9750 9749 9749 9748 9748 9748 9748 9749 9749 9750 9750 9751 9752 9753 9753 9755 9756 9757 9758 9760 9762 9763 9764
9834 9831 9829 9826 9823 9821 9819 9817 9815 9813 9811 9809 9807 9805 9803 9801 9799 9797 9796 9794 9793 9791 9791 9790 9790 9788 9787 9785 9783 9782 9781 9780 9779 9778 9777 9776 9774 9773 9771 9770 9769 9768 9767 9765 9764 9763 9762 9761 9759 9758 9757 9756 9755 9754 9753 9752 9751 9750 9749 9748 9747 9746 9745 9744 9743 9742 9742 9741 9741 9742 9742 9742 9743 9744 9745 9745 9746 9747 9748 9749 9750 9752 9753 9755 9756
9828 9826 9823 9820 9817 9815 9812 9810 9808 9806 9804 9803 9801 9799 9797 9795 9793 9791 9790 9788 9786 9784 9783 9782 9782 9781 9780 9779 9777 9776 9775 9774 9773 9772 9771 9770 9769 9767 9766 9765 9763 9762 9760 9759 9758 9756 9755 9754 9753 9752 9751 9750 9749 9747 9746 9745 9745 9744 9743 9743 9742 9741 9740 9739 9737 9736 9736 9735 9735 9735 9735 9735 9735 9736 9737 9738 9739 9739 9740 9741 9742 9744 9745 9746 9748
9822 9819 9817 9814 9812 9809 9807 9804 9802 9800 9798 9796 9794 9793 9791 9789 9787 9785 9783 9782 9780 9778 9776 9775 9774 9773 9773 9772 9771 9769 9768 9767 9766 9765 9764 9763 9762 9761 9760 9759 9757 9756 9754 9753 9752 9750 9749 9748 9747 9746 9745 9744 9742 9741 9740 9739 9738 9737 9737 9736 9735 9735 9734 9733 9732 9731 9730 9729 9728 9728 9728 9728 9729 9729 9729 9730 9731 9732 9733 9734 9735 9736 9737 9738 9740
9816 9814 9811 9808 9806 9803 9801 9799 9797 9794 9792 9790 9788 9786 9785 9783 9781 9779 9777 9776 9774 9772 9770 9769 9767 9766 9766 9765 9764 9763 9762 9760 9759 9758 9757 9756 9755 9754 9753 9752 9751 9749 9748 9747 9746 9745 9744 9743 9741 9740 9739 9737 9736 9735 9734 9733 9732 9731 9730 9729 9729 9728 9727 9726 9726 9725 9724 9723 9722 9721 9721 9721 9722 9722 9722 9722 9723 9724 9725 9726 9727 9728 9729 9730 9732
9810 9807 9805 9802 9800 9798 9795 9793 9790 9788 9786 9784 9782 9780 9778 9776 9775 9773 9771 9770 9768 9766 9764 9763 9761 9760 9759 9758 9757 9757 9756 9754 9753 9752 9750 9749 9748 9747 9746 9745 9743 9742 9741 9740 9739 9738 9737 9736 9735 9734 9733 9732 9731 9729 9728 9727 9726 9724 9723 9722 9721 9721 9720 9719 9719 9718 9717 9717 9716 9715 9714 9714 9714 9714 9715 9715 9716 9716 9717 9718 9719 9721 9722 9723 9724
9804 9801 9798 9796 9793 9791 9789 9786 9784 9782 9779 9777 9775 9773 9771 9770 9768 9767 9765 9764 9762 9760 9759 9757 9755 9754 9752 9751 9750 9749 9748 9747 9747 9746 9745 9743 9742 9741 9739 9738 9737 9736 9734 9733 9732 9731 9730 9730 9729 9728 9727 9726 9725 9724 9722 9721 9720 9719 9717 9716 9715 9714 9713 9712 9711 9711 9710 9709 9709 9708 9708 9707 9707 9707 9707 9708 9708 9709 9710 9710 9711 9712 9714 9715 9716
9797 9794 9791 9789 9786 9784 9781 9779 9777 9775 9773 9770 9768 9766 9764 9763 9761 9759 9758 9756 9755 9754 9752 9751 9749 9748 9746 9744 9743 9741 9740 9740 9739 9738 9737 9736 9735 9734 9733 9732 9731 9729 9728 9727 9726 9725 9724 9723 9722 9721 9720 9719 9719 9717 9716 9715 9714 9713 9712 9710 9709 9708 9706 9705 9704 9703 9702 9702 9701 9701 9701 9700 9700 9700 9699 9700 9700 9701 9702 9703 9704 9704 9705 9706 9708
9790 9787 9784 9781 9778 9776 9773 9771 9769 9767 9765 9763 9761 9759 9757 9755 9754 9752 9750 9749 9748 9746 9745 9744 9742 9741 9739 9738 9736 9735 9733 9732 9731 9730 9729 9728 9727 9727 9726 9725 9723 9722 9721 9720 9719 9718 9716 9716 9715 9714 9713 9712 9711 9710 9710 9709 9708 9707 9705 9704 9703 9702 9700 9699 9698 9697 9696 9695 9694 9693 9693 9693 9693 9693 9692 9692 9693 9693 9694 9695 9696 9697 9698 9699 9699
9782 9779 9776 9773 9770 9768 9766 9763 9761 9760 9757 9755 9753 9752 9750 9748 9746 9745 9743 9741 9740 9739 9737 9736 9735 9733 9732 9730 9729 9728 9726 9725 9723 9722 9721 9720 9719 9718 9717 9716 9715 9714 9713 9712 9711 9710 9709 9707 9707 9706 9705 9704 9703 9703 9702 9701 9701 9700 9699 9698 9697 9696 9694 9693 9692 9690 9689 9688 9687 9686 9685 9685 9684 9685 9685 9685 9685 9686 9686 9687 9688 9689 9690 9691 9692
9774 9771 9768 9765 9762 9760 9758 9756 9754 9752 9750 9748 9746 9744 9742 9740 9739 9737 9735 9734 9732 9731 9729 9728 9727 9725 9724 9723 9721 9720 9719 9717 9716 9714 9713 9712 9711 9710 9709 9708 9707 9705 9704 9703 9702 9701 9700 9699 9698 9697 9696 9696 9695 9695 9694 9693 9693 9692 9691 9691 9690 9689 9688 9686 9685 9684 9682 9681 9680 9679 9678 9677 9676 9676 9676 9677 9677 9678 9678 9679 9680 9681 9683 9684 9685
9766 9763 9760 9757 9754 9752 9750 9748 9745 9743 9741 9739 9738 9736 9734 9732 9731 9729 9727 9726 9724 9722 9721 9720 9718 9717 9716 9715 9713 9712 9711 9709 9708 9707 9705 9704 9703 9702 9700 9699 9698 9697 9696 9695 9694 9693 9692 9691 9690 9689 9688 9687 9687 9686 9686 9685 9685 9684 9683 9683 9682 9681 9680 9679 9678 9676 9675 9674 9673 9672 9671 9670 9669 9668 9668 9668 9669 9670 9670 9671 9672 9673 9674 9676 9677
9758 9755 9752 9749 9746 9744 9741 9739 9737 9735 9733 9731 9729 9727 9725 9724 9722 9720 9719 9717 9716 9714 9713 9711 9710 9709 9707 9706 9705 9704 9703 9701 9700 9699 9697 9696 9695 9693 9692 9691 9690 9689 9688 9687 9686 9685 9684 9683 9682 9681 9680 9679 9679 9678 9677 9677 9676 9676 9675 9674 9674 9673 9672 9671 9670 9669 9667 9666 9666 9665 9664 9663 9662 9661 9660 9660 9660 9661 9662 9663 9664 9665 9666 9667 9669
9750 9746 9743 9741 9738 9735 9733 9730 9728 9726 9724 9722 9720 9718 9716 9715 9713 9711 9710 9708 9707 9705 9704 9702 9701 9699 9698 9697 9696 9695 9694 9692 9691 9690 9688 9687 9686 9685 9684 9683 9682 9681 9680 9679 9678 9677 9676 9675 9674 9673 9672 9672 9671 9670 9669 9669 9668 9667 9667 9666 9665 9664 9663 9663 9662 9660 9659 9658 9657 9657 9656 9655 9655 9654 9653 9653 9652 9652 9653 9654 9655 9657 9658 9659 9661